Shirahamamaru — JG4872 — position and weather

sailwx.info

Track history (hours):
 
Tides and Currents Weather Stations Pressure Air Temp Water Temp Dewpoint Dewpoint Depression Visibility Wind Speed Wind Dir Waves Ship Positions

Shirahamamaru

Last reported at 2014-Jul-30 22:33 UTC. Time now 2014-Jul-30 23:21 UTC.
Position N 35°12' E 139°46'.

Length 79 m; draft 3.2 m.

Type: Passenger vessel. MMSI: 431000239.

Date/timePositionNaut miles runAvg speedWind from/ knotsBaromVisibWave heightAir tempDewpointWater temp
2014-Jul-30 22:33N 35°12' E 139°46'1 1.3
2014-Jul-30 21:33N 35°13' E 139°45'1 0.1
2014-Jul-30 11:14N 35°13' E 139°43'6 8.6
2014-Jul-30 10:33N 35°10' E 139°49'3 3.2
2014-Jul-30 09:33N 35°12' E 139°46'1 1.4
2014-Jul-30 08:33N 35°11' E 139°47'2 2.3
2014-Jul-30 07:33N 35°13' E 139°45'2 2.2
2014-Jul-30 06:33N 35°11' E 139°47'2 2.4
2014-Jul-30 05:33N 35°13' E 139°45'2 1.5
2014-Jul-30 04:33N 35°12' E 139°46'1 0.5
2014-Jul-30 03:33N 35°12' E 139°46'1 1.4
2014-Jul-30 02:33N 35°11' E 139°47'3 3.1
2014-Jul-30 01:33N 35°13' E 139°44'3 3.2
2014-Jul-30 00:33N 35°11' E 139°47'3 2.8
2014-Jul-29 23:33N 35°13' E 139°44'2 1.6
2014-Jul-29 22:33N 35°12' E 139°46'1 1.4
2014-Jul-29 21:33N 35°13' E 139°45'2 1.6
2014-Jul-29 20:33N 35°13' E 139°43'0 0.0
2014-Jul-29 11:09N 35°13' E 139°43'6 9.7
2014-Jul-29 10:33N 35°10' E 139°49'3 3.3
2014-Jul-29 09:34N 35°12' E 139°46'1 1.3
2014-Jul-29 08:33N 35°11' E 139°47'2 2.2
2014-Jul-29 07:33N 35°13' E 139°45'2 2.3
2014-Jul-29 06:33N 35°11' E 139°47'3 2.6
2014-Jul-29 05:34N 35°13' E 139°45'2 1.5
2014-Jul-29 04:33N 35°12' E 139°46'0 0.4
2014-Jul-29 03:33N 35°12' E 139°46'1 1.5
2014-Jul-29 02:34N 35°11' E 139°47'3 2.5
2014-Jul-29 01:33N 35°13' E 139°45'2 2.5
2014-Jul-29 00:33N 35°11' E 139°47'3 2.7
2014-Jul-28 23:33N 35°13' E 139°44'2 1.9
2014-Jul-28 22:33N 35°12' E 139°47'2 1.6
2014-Jul-28 21:33N 35°13' E 139°45'2 1.5
2014-Jul-28 20:33N 35°13' E 139°43'0 0.0
2014-Jul-28 11:08N 35°13' E 139°43'6 9.6
2014-Jul-28 10:33N 35°10' E 139°49'3 3.1
2014-Jul-28 09:33N 35°12' E 139°46'1 1.3
2014-Jul-28 08:33N 35°11' E 139°47'2 2.2
2014-Jul-28 07:33N 35°13' E 139°45'2 2.4
2014-Jul-28 06:33N 35°11' E 139°47'3 2.7
2014-Jul-28 05:33N 35°13' E 139°44'1 1.5
2014-Jul-28 04:33N 35°12' E 139°46'1 0.5
2014-Jul-28 03:33N 35°12' E 139°45'2 1.7
2014-Jul-28 02:33N 35°11' E 139°47'3 2.5
2014-Jul-28 01:33N 35°13' E 139°45'2 2.4
2014-Jul-28 00:33N 35°11' E 139°47'2 2.5
2014-Jul-27 23:33N 35°13' E 139°44'1 1.4
2014-Jul-27 22:33N 35°12' E 139°46'1 1.3
2014-Jul-27 21:33N 35°13' E 139°45'1 0.1
2014-Jul-27 11:14N 35°13' E 139°43'6 8.4
2014-Jul-27 10:33N 35°10' E 139°49'3 3.1
2014-Jul-27 09:33N 35°12' E 139°46'2 1.7
2014-Jul-27 08:33N 35°11' E 139°48'3 2.7
2014-Jul-27 07:33N 35°13' E 139°45'3 2.6
2014-Jul-27 06:34N 35°11' E 139°47'3 2.6
2014-Jul-27 05:33N 35°13' E 139°45'1 1.4
2014-Jul-27 04:33N 35°12' E 139°46'1 0.7
2014-Jul-27 03:33N 35°12' E 139°45'2 1.6
2014-Jul-27 02:33N 35°11' E 139°47'2 2.3
2014-Jul-27 01:33N 35°13' E 139°45'2 2.2
2014-Jul-27 00:34N 35°12' E 139°47'2 2.1
2014-Jul-26 23:33N 35°13' E 139°45'1 1.3
2014-Jul-26 22:33N 35°12' E 139°46'1 1.3
2014-Jul-26 21:33N 35°13' E 139°45'2 0.2
2014-Jul-26 11:20N 35°13' E 139°43'6 7.3
2014-Jul-26 10:34N 35°10' E 139°49'3 3.4
2014-Jul-26 09:33N 35°13' E 139°46'2 1.6
2014-Jul-26 08:34N 35°11' E 139°47'2 2.3
2014-Jul-26 07:33N 35°13' E 139°45'2 2.2
2014-Jul-26 06:33N 35°11' E 139°47'2 2.2
2014-Jul-26 05:34N 35°13' E 139°45'2 1.5
2014-Jul-26 04:34N 35°12' E 139°47'1 0.8
2014-Jul-26 03:33N 35°12' E 139°46'1 1.3
2014-Jul-26 02:33N 35°11' E 139°47'2 2.3
2014-Jul-26 01:34N 35°13' E 139°45'3 2.8
2014-Jul-26 00:34N 35°11' E 139°48'3 2.9
2014-Jul-25 23:34N 35°13' E 139°45'1 1.5
2014-Jul-25 22:33N 35°13' E 139°43'0 0.0
2014-Jul-25 21:34N 35°13' E 139°43'0 0.0
2014-Jul-25 20:34N 35°13' E 139°43'0 0.0
2014-Jul-25 11:08N 35°13' E 139°43'6 9.9
2014-Jul-25 10:33N 35°10' E 139°49'4 3.6
2014-Jul-25 09:33N 35°13' E 139°46'2 1.8
2014-Jul-25 08:33N 35°11' E 139°47'2 2.4
2014-Jul-25 07:33N 35°13' E 139°45'2 2.2
2014-Jul-25 06:33N 35°11' E 139°47'2 2.3
2014-Jul-25 05:33N 35°13' E 139°45'1 1.2
2014-Jul-25 04:33N 35°12' E 139°46'0 0.4
2014-Jul-25 03:33N 35°12' E 139°46'2 1.5
2014-Jul-25 02:33N 35°11' E 139°47'2 2.4
2014-Jul-25 01:33N 35°13' E 139°45'2 2.4
2014-Jul-25 00:33N 35°11' E 139°47'2 2.3
2014-Jul-24 23:33N 35°13' E 139°45'1 1.4
2014-Jul-24 22:33N 35°12' E 139°46'1 1.4
2014-Jul-24 21:33N 35°13' E 139°45'2 1.5
2014-Jul-24 20:33N 35°13' E 139°43'0 0.0
2014-Jul-24 11:09N 35°13' E 139°43'6 9.4
2014-Jul-24 10:33N 35°10' E 139°49'3 3.0
2014-Jul-24 09:33N 35°12' E 139°46'1 1.3
2014-Jul-24 08:33N 35°11' E 139°47'3 2.5
2014-Jul-24 07:33N 35°13' E 139°45'2 2.3
2014-Jul-24 06:33N 35°12' E 139°47'2 2.4
2014-Jul-24 05:33N 35°13' E 139°45'1 1.3
2014-Jul-24 04:33N 35°12' E 139°46'0 0.3
2014-Jul-24 03:33N 35°12' E 139°46'2 1.5
2014-Jul-24 02:33N 35°11' E 139°47'3 2.6
2014-Jul-24 01:33N 35°13' E 139°45'3 2.6
2014-Jul-24 00:33N 35°11' E 139°47'2 2.4
2014-Jul-23 23:33N 35°13' E 139°45'1 1.2
2014-Jul-23 22:33N 35°12' E 139°46'1 1.3
2014-Jul-23 21:33N 35°13' E 139°45'2 0.1
2014-Jul-23 11:12N 35°13' E 139°43'6 8.8
2014-Jul-23 10:33N 35°10' E 139°49'3 3.1
2014-Jul-23 09:33N 35°12' E 139°46'1 1.2
2014-Jul-23 08:33N 35°12' E 139°47'2 2.1
2014-Jul-23 07:33N 35°13' E 139°45'2 2.1
2014-Jul-23 06:33N 35°11' E 139°47'2 2.1
2014-Jul-23 05:33N 35°13' E 139°45'1 1.4
2014-Jul-23 04:34N 35°12' E 139°47'1 0.9
2014-Jul-23 03:33N 35°12' E 139°46'1 1.2
2014-Jul-23 02:33N 35°12' E 139°47'2 2.3
2014-Jul-23 01:33N 35°13' E 139°45'2 2.3
2014-Jul-23 00:33N 35°12' E 139°47'2 2.2
2014-Jul-22 23:33N 35°13' E 139°45'1 1.3
2014-Jul-22 22:33N 35°12' E 139°46'1 1.1
2014-Jul-22 21:33N 35°13' E 139°45'2 0.2
2014-Jul-22 11:13N 35°13' E 139°43'6 8.6
2014-Jul-22 10:33N 35°10' E 139°49'3 3.0
2014-Jul-22 09:33N 35°12' E 139°46'1 1.0
2014-Jul-22 08:34N 35°12' E 139°47'2 1.9
2014-Jul-22 07:34N 35°13' E 139°45'2 2.0
2014-Jul-22 06:33N 35°12' E 139°47'2 2.1
2014-Jul-22 05:33N 35°13' E 139°45'1 1.0
2014-Jul-22 04:34N 35°12' E 139°46'0 0.1
2014-Jul-22 03:33N 35°12' E 139°46'1 1.1
2014-Jul-22 02:33N 35°12' E 139°47'2 2.3
2014-Jul-22 01:34N 35°13' E 139°45'2 2.5
2014-Jul-22 00:33N 35°11' E 139°47'2 2.5
2014-Jul-21 23:34N 35°13' E 139°45'1 1.4
2014-Jul-21 22:34N 35°12' E 139°46'1 1.4
2014-Jul-21 21:34N 35°13' E 139°45'1 1.4
2014-Jul-21 20:34N 35°13' E 139°43'0 0.0
2014-Jul-21 11:08N 35°13' E 139°43'6 9.9
2014-Jul-21 10:33N 35°10' E 139°49'3 3.3
2014-Jul-21 09:34N 35°12' E 139°46'2 2.2
2014-Jul-21 08:34N 35°11' E 139°48'3 3.2
2014-Jul-21 07:34N 35°13' E 139°45'2 2.3
2014-Jul-21 06:34N 35°11' E 139°47'2 2.1
2014-Jul-21 05:34N 35°13' E 139°45'1 1.3
2014-Jul-21 04:34N 35°12' E 139°46'1 0.8
2014-Jul-21 03:34N 35°12' E 139°45'2 1.9
2014-Jul-21 02:33N 35°11' E 139°47'3 2.9
2014-Jul-21 01:34N 35°13' E 139°44'3 2.7
2014-Jul-21 00:33N 35°11' E 139°47'2 2.4
2014-Jul-20 23:34N 35°13' E 139°45'2 1.5
2014-Jul-20 22:33N 35°12' E 139°46'  
Track history (hours):
 
Tides and Currents Weather Stations Pressure Air Temp Water Temp Dewpoint Dewpoint Depression Visibility Wind Speed Wind Dir Waves Ship Positions

Shirahamamaru

Last reported at 2014-Jul-30 22:33 UTC. Time now 2014-Jul-30 23:21 UTC.
Position N 35°12' E 139°46'.

Length 79 m; draft 3.2 m.

Type: Passenger vessel. MMSI: 431000239.

Date/timePositionNaut miles runAvg speedWind from/ knotsBaromVisibWave heightAir tempDewpointWater temp
2014-Jul-30 22:33N 35°12' E 139°46'1 1.3
2014-Jul-30 21:33N 35°13' E 139°45'1 0.1
2014-Jul-30 11:14N 35°13' E 139°43'6 8.6
2014-Jul-30 10:33N 35°10' E 139°49'3 3.2
2014-Jul-30 09:33N 35°12' E 139°46'1 1.4
2014-Jul-30 08:33N 35°11' E 139°47'2 2.3
2014-Jul-30 07:33N 35°13' E 139°45'2 2.2
2014-Jul-30 06:33N 35°11' E 139°47'2 2.4
2014-Jul-30 05:33N 35°13' E 139°45'2 1.5
2014-Jul-30 04:33N 35°12' E 139°46'1 0.5
2014-Jul-30 03:33N 35°12' E 139°46'1 1.4
2014-Jul-30 02:33N 35°11' E 139°47'3 3.1
2014-Jul-30 01:33N 35°13' E 139°44'3 3.2
2014-Jul-30 00:33N 35°11' E 139°47'3 2.8
2014-Jul-29 23:33N 35°13' E 139°44'2 1.6
2014-Jul-29 22:33N 35°12' E 139°46'1 1.4
2014-Jul-29 21:33N 35°13' E 139°45'2 1.6
2014-Jul-29 20:33N 35°13' E 139°43'0 0.0
2014-Jul-29 11:09N 35°13' E 139°43'6 9.7
2014-Jul-29 10:33N 35°10' E 139°49'3 3.3
2014-Jul-29 09:34N 35°12' E 139°46'1 1.3
2014-Jul-29 08:33N 35°11' E 139°47'2 2.2
2014-Jul-29 07:33N 35°13' E 139°45'2 2.3
2014-Jul-29 06:33N 35°11' E 139°47'3 2.6
2014-Jul-29 05:34N 35°13' E 139°45'2 1.5
2014-Jul-29 04:33N 35°12' E 139°46'0 0.4
2014-Jul-29 03:33N 35°12' E 139°46'1 1.5
2014-Jul-29 02:34N 35°11' E 139°47'3 2.5
2014-Jul-29 01:33N 35°13' E 139°45'2 2.5
2014-Jul-29 00:33N 35°11' E 139°47'3 2.7
2014-Jul-28 23:33N 35°13' E 139°44'2 1.9
2014-Jul-28 22:33N 35°12' E 139°47'2 1.6
2014-Jul-28 21:33N 35°13' E 139°45'2 1.5
2014-Jul-28 20:33N 35°13' E 139°43'0 0.0
2014-Jul-28 11:08N 35°13' E 139°43'6 9.6
2014-Jul-28 10:33N 35°10' E 139°49'3 3.1
2014-Jul-28 09:33N 35°12' E 139°46'1 1.3
2014-Jul-28 08:33N 35°11' E 139°47'2 2.2
2014-Jul-28 07:33N 35°13' E 139°45'2 2.4
2014-Jul-28 06:33N 35°11' E 139°47'3 2.7
2014-Jul-28 05:33N 35°13' E 139°44'1 1.5
2014-Jul-28 04:33N 35°12' E 139°46'1 0.5
2014-Jul-28 03:33N 35°12' E 139°45'2 1.7
2014-Jul-28 02:33N 35°11' E 139°47'3 2.5
2014-Jul-28 01:33N 35°13' E 139°45'2 2.4
2014-Jul-28 00:33N 35°11' E 139°47'2 2.5
2014-Jul-27 23:33N 35°13' E 139°44'1 1.4
2014-Jul-27 22:33N 35°12' E 139°46'1 1.3
2014-Jul-27 21:33N 35°13' E 139°45'1 0.1
2014-Jul-27 11:14N 35°13' E 139°43'6 8.4
2014-Jul-27 10:33N 35°10' E 139°49'3 3.1
2014-Jul-27 09:33N 35°12' E 139°46'2 1.7
2014-Jul-27 08:33N 35°11' E 139°48'3 2.7
2014-Jul-27 07:33N 35°13' E 139°45'3 2.6
2014-Jul-27 06:34N 35°11' E 139°47'3 2.6
2014-Jul-27 05:33N 35°13' E 139°45'1 1.4
2014-Jul-27 04:33N 35°12' E 139°46'1 0.7
2014-Jul-27 03:33N 35°12' E 139°45'2 1.6
2014-Jul-27 02:33N 35°11' E 139°47'2 2.3
2014-Jul-27 01:33N 35°13' E 139°45'2 2.2
2014-Jul-27 00:34N 35°12' E 139°47'2 2.1
2014-Jul-26 23:33N 35°13' E 139°45'1 1.3
2014-Jul-26 22:33N 35°12' E 139°46'1 1.3
2014-Jul-26 21:33N 35°13' E 139°45'2 0.2
2014-Jul-26 11:20N 35°13' E 139°43'6 7.3
2014-Jul-26 10:34N 35°10' E 139°49'3 3.4
2014-Jul-26 09:33N 35°13' E 139°46'2 1.6
2014-Jul-26 08:34N 35°11' E 139°47'2 2.3
2014-Jul-26 07:33N 35°13' E 139°45'2 2.2
2014-Jul-26 06:33N 35°11' E 139°47'2 2.2
2014-Jul-26 05:34N 35°13' E 139°45'2 1.5
2014-Jul-26 04:34N 35°12' E 139°47'1 0.8
2014-Jul-26 03:33N 35°12' E 139°46'1 1.3
2014-Jul-26 02:33N 35°11' E 139°47'2 2.3
2014-Jul-26 01:34N 35°13' E 139°45'3 2.8
2014-Jul-26 00:34N 35°11' E 139°48'3 2.9
2014-Jul-25 23:34N 35°13' E 139°45'1 1.5
2014-Jul-25 22:33N 35°13' E 139°43'0 0.0
2014-Jul-25 21:34N 35°13' E 139°43'0 0.0
2014-Jul-25 20:34N 35°13' E 139°43'0 0.0
2014-Jul-25 11:08N 35°13' E 139°43'6 9.9
2014-Jul-25 10:33N 35°10' E 139°49'4 3.6
2014-Jul-25 09:33N 35°13' E 139°46'2 1.8
2014-Jul-25 08:33N 35°11' E 139°47'2 2.4
2014-Jul-25 07:33N 35°13' E 139°45'2 2.2
2014-Jul-25 06:33N 35°11' E 139°47'2 2.3
2014-Jul-25 05:33N 35°13' E 139°45'1 1.2
2014-Jul-25 04:33N 35°12' E 139°46'0 0.4
2014-Jul-25 03:33N 35°12' E 139°46'2 1.5
2014-Jul-25 02:33N 35°11' E 139°47'2 2.4
2014-Jul-25 01:33N 35°13' E 139°45'2 2.4
2014-Jul-25 00:33N 35°11' E 139°47'2 2.3
2014-Jul-24 23:33N 35°13' E 139°45'1 1.4
2014-Jul-24 22:33N 35°12' E 139°46'1 1.4
2014-Jul-24 21:33N 35°13' E 139°45'2 1.5
2014-Jul-24 20:33N 35°13' E 139°43'0 0.0
2014-Jul-24 11:09N 35°13' E 139°43'6 9.4
2014-Jul-24 10:33N 35°10' E 139°49'3 3.0
2014-Jul-24 09:33N 35°12' E 139°46'1 1.3
2014-Jul-24 08:33N 35°11' E 139°47'3 2.5
2014-Jul-24 07:33N 35°13' E 139°45'2 2.3
2014-Jul-24 06:33N 35°12' E 139°47'2 2.4
2014-Jul-24 05:33N 35°13' E 139°45'1 1.3
2014-Jul-24 04:33N 35°12' E 139°46'0 0.3
2014-Jul-24 03:33N 35°12' E 139°46'2 1.5
2014-Jul-24 02:33N 35°11' E 139°47'3 2.6
2014-Jul-24 01:33N 35°13' E 139°45'3 2.6
2014-Jul-24 00:33N 35°11' E 139°47'2 2.4
2014-Jul-23 23:33N 35°13' E 139°45'1 1.2
2014-Jul-23 22:33N 35°12' E 139°46'1 1.3
2014-Jul-23 21:33N 35°13' E 139°45'2 0.1
2014-Jul-23 11:12N 35°13' E 139°43'6 8.8
2014-Jul-23 10:33N 35°10' E 139°49'3 3.1
2014-Jul-23 09:33N 35°12' E 139°46'1 1.2
2014-Jul-23 08:33N 35°12' E 139°47'2 2.1
2014-Jul-23 07:33N 35°13' E 139°45'2 2.1
2014-Jul-23 06:33N 35°11' E 139°47'2 2.1
2014-Jul-23 05:33N 35°13' E 139°45'1 1.4
2014-Jul-23 04:34N 35°12' E 139°47'1 0.9
2014-Jul-23 03:33N 35°12' E 139°46'1 1.2
2014-Jul-23 02:33N 35°12' E 139°47'2 2.3
2014-Jul-23 01:33N 35°13' E 139°45'2 2.3
2014-Jul-23 00:33N 35°12' E 139°47'2 2.2
2014-Jul-22 23:33N 35°13' E 139°45'1 1.3
2014-Jul-22 22:33N 35°12' E 139°46'1 1.1
2014-Jul-22 21:33N 35°13' E 139°45'2 0.2
2014-Jul-22 11:13N 35°13' E 139°43'6 8.6
2014-Jul-22 10:33N 35°10' E 139°49'3 3.0
2014-Jul-22 09:33N 35°12' E 139°46'1 1.0
2014-Jul-22 08:34N 35°12' E 139°47'2 1.9
2014-Jul-22 07:34N 35°13' E 139°45'2 2.0
2014-Jul-22 06:33N 35°12' E 139°47'2 2.1
2014-Jul-22 05:33N 35°13' E 139°45'1 1.0
2014-Jul-22 04:34N 35°12' E 139°46'0 0.1
2014-Jul-22 03:33N 35°12' E 139°46'1 1.1
2014-Jul-22 02:33N 35°12' E 139°47'2 2.3
2014-Jul-22 01:34N 35°13' E 139°45'2 2.5
2014-Jul-22 00:33N 35°11' E 139°47'2 2.5
2014-Jul-21 23:34N 35°13' E 139°45'1 1.4
2014-Jul-21 22:34N 35°12' E 139°46'1 1.4
2014-Jul-21 21:34N 35°13' E 139°45'1 1.4
2014-Jul-21 20:34N 35°13' E 139°43'0 0.0
2014-Jul-21 11:08N 35°13' E 139°43'6 9.9
2014-Jul-21 10:33N 35°10' E 139°49'3 3.3
2014-Jul-21 09:34N 35°12' E 139°46'2 2.2
2014-Jul-21 08:34N 35°11' E 139°48'3 3.2
2014-Jul-21 07:34N 35°13' E 139°45'2 2.3
2014-Jul-21 06:34N 35°11' E 139°47'2 2.1
2014-Jul-21 05:34N 35°13' E 139°45'1 1.3
2014-Jul-21 04:34N 35°12' E 139°46'1 0.8
2014-Jul-21 03:34N 35°12' E 139°45'2 1.9
2014-Jul-21 02:33N 35°11' E 139°47'3 2.9
2014-Jul-21 01:34N 35°13' E 139°44'3 2.7
2014-Jul-21 00:33N 35°11' E 139°47'2 2.4
2014-Jul-20 23:34N 35°13' E 139°45'2 1.5
2014-Jul-20 22:33N 35°12' E 139°46'  

Dump ship's entire track history